User: anonymous   Login
Location: Newark
(31.8769°N, 91.1411°W)
Time: 23:43:04
(UTC+00:00)
Language:

N. Korean satellite - Orbit

View from above orbital plane
View from above orbital plane
View from above satellite
View from above satellite

Ground track
Ground track

The orbit data is extracted from the following two-line orbital elements,

1 39026U 12072A   20050.49024947  .00000976  00000-0  37393-4 0  9999
2 39026  97.2196  50.8564 0036179 309.0392  50.7629 15.28343827399133
Epoch (UTC): 19 February 2020 11:45:57
Eccentricity: 0.0036179
inclination: 97.2196°
perigee height: 456 km
apogee height: 505 km
right ascension of ascending node: 50.8564°
argument of perigee: 309.0392°
revolutions per day: 15.28343827
mean anomaly at epoch: 50.7629°
orbit number at epoch: 39913

The dashed part of the orbit path shows where the satellite is in the earth's shadow,  

DLR